Weather in Shirokovo

Russia / Ivanovo Oblast     57°12′00″N   41°06′53″E
temp.,
°C
wind,
m/s
gust,
m/s
humid.,
%
clouds,
%
prec.,
mm/h
press.,
hPa
HPBL,
m
25 february, thu
thu2500:00−16s51094100 0.4 1027428
03:00−16s51195100 1.5 1024435
06:00−15s71395100 2.1 1017435
09:00−13s51095100 4.8 1013398
12:00−10sse4695100 1.6 1011260
15:00−6se2294100 2.2 1010182
18:00−8ese229796 0.3 101124
21:00−8ese129795 0.5 101240
26 february, fri
fri2600:00−7ese2296100 0.4 101283
03:00−8se3496100 0.5 1011120
06:00−8se5896100 0.8 1008195
09:00−8se5995100 3.1 1005247
12:00−4sse5797100 2.3 1001154
15:00+2wsw512100100 7.1 998473
18:00+2w61599100 2.1 996719
21:00+1w71498100 2.8 995740
27 february, sat
sat2700:000w71297100 0.5 994734
03:00−4wnw71495100 2.3 996719
06:00−11nw61192100 0.3 997502
09:00−12n61093100 0.6 1001505
12:00−11n6990100 0.2 1004611
15:00−11n6989100 0.3 1007661
18:00−12n51093100 0.1 1009414
21:00−14n4996100 0.1 1012206
28 february, sun
sun2800:00−17nnw469745 0.0 1013117
03:00−18nnw369726 0.0 1015108
06:00−18nnw359732 0.0 101593
09:00−15nnw359554 0.1 1016254
12:00−11nnw359291 0.1 1016410
15:00−9nnw469196 0.1 1017529
18:00−11nnw239594 0.0 101828
21:00−13n339772 0.1 102134
1 march, mon
mon100:00−13n229784 0.1 102220
03:00−12wsw119792 0.1 102321
06:00−11wsw229697 0.1 102421
09:00−7w249697 0.2 1024160
12:00−4w358870 0.0 1024624
15:00−3wsw468785 0.1 1022612
18:00−3wsw51094100 0.1 1020504
21:00−2wsw51194100 0.2 1017503